Regional Weather Roundup
Issued by NWS Binghamton, NY

Home | Current Version | Previous Version | Text Only | Print | Product List | Glossary On
Versions: 1 2 3 4 5 6 7 8 9 10 11 12 13 14 15 16 17 18 19 20 21 22 23 24 25 26 27 28 29 30 31 32 33 34 35 36 37 38 39 40 41 42 43 44 45 46 47 48 49 50
885
ASUS41 KBGM 271410
RWRBGM

REGIONAL WEATHER ROUNDUP
NATIONAL WEATHER SERVICE BINGHAMTON NY
1000 AM EDT WED JUL 27 2016

Note: "fair" indicates few or no clouds below 12,000 feet with no
significant weather and/or obstructions to visibility.

* = Station(s) that does not report precipitation, such as rain,
snow, etc, also no thunder or fog.

NYZ009-015>018-022>025-036-037-044>046-055>057-062-271500
...Central New York...

CITY           SKY/WX    TMP DP  RH WIND       PRES   REMARKS
Binghamton     SUNNY     75  60  59 W5        30.03F
Cortland       FAIR      77  61  57 W5        30.02F
Dansville      SUNNY     77  63  61 CALM      30.02S
Elmira         SUNNY     76  61  59 SW6       30.00F
Ithaca         MOSUNNY   76  61  59 SW6       30.02F
Hamilton       SUNNY     75  64  69 CALM      30.02S
Hornell        SUNNY     75  63  64 CALM      30.06F
Monticello     SUNNY     75  63  64 NW7       30.04S
Norwich        SUNNY     73  63  68 S5        30.02S
Oneonta        SUNNY     72  59  64 CALM      30.04S
Penn Yan       SUNNY     77  64  64 W5        30.01F
Rome           SUNNY     73  64  73 CALM      30.00S
Sidney         SUNNY     70  70 100 CALM      30.02F
Syracuse       PTSUNNY   77  65  66 SW8       29.98S
$$

PAZ038>040-043-044-047-048-072-271500
...Northeast Pennsylvania...

CITY           SKY/WX    TMP DP  RH WIND       PRES   REMARKS
Hazleton       SUNNY     73  61  64 CALM      30.07S
Scranton       SUNNY     78  62  57 E3        30.01F
$$
&&
KEY
WCI = Wind Chill Index
VSB = Visibility
HX  = Heat Index
$$




USA.gov is the U.S. government's official web portal to all federal, state and local government web resources and services.